Time,TemperatureF,DewpointF,PressureIn,WindDirection,WindDirectionDegrees,WindSpeedMPH,WindSpeedGustMPH,Humidity,HourlyPrecipIn,Conditions,Clouds,dailyrainin,SolarRadiationWatts/m^2,SoftwareType,DateUTC
2013-10-15 00:42:00,53.0,42.0,-100.00,NNE,15,2.0,7.0,67,0.00,,,0.00,0.000000,,2013-10-15 07:42:00,
2013-10-15 00:52:00,53.0,42.0,-100.00,NNE,15,2.0,7.0,67,0.00,,,0.00,0.000000,,2013-10-15 07:52:00,
2013-10-15 01:02:00,53.0,42.0,-100.00,NNE,15,2.0,7.0,67,0.00,,,0.00,0.000000,,2013-10-15 08:02:00,
2013-10-15 01:12:00,53.0,42.0,-100.00,NNE,15,2.0,7.0,67,0.00,,,0.00,0.000000,,2013-10-15 08:12:00,
2013-10-15 01:42:00,51.0,42.0,-100.00,NW,310,6.0,7.0,71,0.00,,,0.00,0.000000,,2013-10-15 08:42:00,
2013-10-15 01:52:00,51.0,42.0,-100.00,NW,310,6.0,7.0,71,0.00,,,0.00,0.000000,,2013-10-15 08:52:00,
2013-10-15 02:02:00,51.0,42.0,-100.00,NW,310,6.0,7.0,71,0.00,,,0.00,0.000000,,2013-10-15 09:02:00,
2013-10-15 02:12:00,51.0,42.0,-100.00,NW,310,6.0,7.0,71,0.00,,,0.00,0.000000,,2013-10-15 09:12:00,
2013-10-15 02:43:00,51.0,43.0,-100.00,NNW,327,2.0,8.0,73,0.00,,,0.00,0.000000,,2013-10-15 09:43:00,
2013-10-15 02:53:00,51.0,43.0,-100.00,NNW,327,2.0,8.0,73,0.00,,,0.00,0.000000,,2013-10-15 09:53:00,
2013-10-15 03:03:00,51.0,43.0,-100.00,NNW,327,2.0,8.0,73,0.00,,,0.00,0.000000,,2013-10-15 10:03:00,
2013-10-15 03:12:00,51.0,43.0,-100.00,NNW,327,2.0,8.0,73,0.00,,,0.00,0.000000,,2013-10-15 10:12:00,
2013-10-15 03:43:00,51.0,43.0,-100.00,SSE,160,1.0,4.0,75,0.00,,,0.00,0.000000,,2013-10-15 10:43:00,
2013-10-15 03:53:00,51.0,43.0,-100.00,SSE,160,1.0,4.0,75,0.00,,,0.00,0.000000,,2013-10-15 10:53:00,
2013-10-15 04:02:00,51.0,43.0,-100.00,SSE,160,1.0,4.0,75,0.00,,,0.00,0.000000,,2013-10-15 11:02:00,
2013-10-15 04:11:00,51.0,43.0,-100.00,SSE,160,1.0,4.0,75,0.00,,,0.00,0.000000,,2013-10-15 11:11:00,
2013-10-15 04:42:00,50.0,43.0,-100.00,SE,136,2.0,5.0,76,0.00,,,0.00,0.000000,,2013-10-15 11:42:00,
2013-10-15 04:52:00,50.0,43.0,-100.00,SE,136,2.0,5.0,76,0.00,,,0.00,0.000000,,2013-10-15 11:52:00,
2013-10-15 05:01:00,50.0,43.0,-100.00,SE,136,2.0,5.0,76,0.00,,,0.00,0.000000,,2013-10-15 12:01:00,
2013-10-15 05:12:00,50.0,43.0,-100.00,SE,136,2.0,5.0,76,0.00,,,0.00,0.000000,,2013-10-15 12:12:00,
2013-10-15 05:42:00,50.0,43.0,-100.00,East,95,3.0,6.0,76,0.00,,,0.00,0.000000,,2013-10-15 12:42:00,
2013-10-15 05:52:00,50.0,43.0,-100.00,East,95,3.0,6.0,76,0.00,,,0.00,0.000000,,2013-10-15 12:52:00,
2013-10-15 06:01:00,50.0,43.0,-100.00,East,95,3.0,6.0,76,0.00,,,0.00,0.000000,,2013-10-15 13:01:00,
2013-10-15 06:11:00,50.0,43.0,-100.00,East,95,3.0,6.0,76,0.00,,,0.00,0.000000,,2013-10-15 13:11:00,
2013-10-15 06:42:00,49.0,42.0,-100.00,SSW,212,2.0,4.0,78,0.00,,,0.00,0.000000,,2013-10-15 13:42:00,
2013-10-15 06:52:00,49.0,42.0,-100.00,SSW,212,2.0,4.0,78,0.00,,,0.00,0.000000,,2013-10-15 13:52:00,
2013-10-15 07:02:00,49.0,42.0,-100.00,SSW,212,2.0,4.0,78,0.00,,,0.00,0.000000,,2013-10-15 14:02:00,
2013-10-15 07:11:00,49.0,42.0,-100.00,SSW,212,2.0,4.0,78,0.00,,,0.00,0.000000,,2013-10-15 14:11:00,
2013-10-15 07:42:00,48.0,40.0,-100.00,East,99,4.0,5.0,75,0.00,,,0.00,0.000000,,2013-10-15 14:42:00,
2013-10-15 07:52:00,48.0,40.0,-100.00,East,99,4.0,5.0,75,0.00,,,0.00,0.000000,,2013-10-15 14:52:00,
2013-10-15 08:01:00,48.0,40.0,-100.00,East,99,4.0,5.0,75,0.00,,,0.00,0.000000,,2013-10-15 15:01:00,
2013-10-15 08:11:00,48.0,40.0,-100.00,East,99,4.0,5.0,75,0.00,,,0.00,0.000000,,2013-10-15 15:11:00,
2013-10-15 08:44:00,49.0,42.0,-100.00,West,276,5.0,6.0,78,0.00,,,0.00,17.000000,,2013-10-15 15:44:00,
2013-10-15 08:53:00,49.0,42.0,-100.00,West,276,5.0,6.0,78,0.00,,,0.00,17.000000,,2013-10-15 15:53:00,
2013-10-15 09:03:00,49.0,42.0,-100.00,West,276,5.0,6.0,78,0.00,,,0.00,17.000000,,2013-10-15 16:03:00,
2013-10-15 09:12:00,49.0,42.0,-100.00,West,276,5.0,6.0,78,0.00,,,0.00,17.000000,,2013-10-15 16:12:00,
2013-10-15 09:43:00,50.0,43.0,-100.00,WNW,287,5.0,6.0,76,0.00,,,0.00,142.000000,,2013-10-15 16:43:00,
2013-10-15 09:53:00,50.0,43.0,-100.00,WNW,287,5.0,6.0,76,0.00,,,0.00,142.000000,,2013-10-15 16:53:00,
2013-10-15 10:02:00,50.0,43.0,-100.00,WNW,287,5.0,6.0,76,0.00,,,0.00,142.000000,,2013-10-15 17:02:00,
2013-10-15 10:12:00,50.0,43.0,-100.00,WNW,287,5.0,6.0,76,0.00,,,0.00,142.000000,,2013-10-15 17:12:00,
2013-10-15 10:42:00,55.0,43.0,-100.00,West,279,3.0,6.0,64,0.00,,,0.00,370.000000,,2013-10-15 17:42:00,
2013-10-15 11:42:00,60.0,46.0,-100.00,West,275,3.0,9.0,60,0.00,,,0.00,526.000000,,2013-10-15 18:42:00,
2013-10-15 12:42:00,62.0,46.0,-100.00,West,276,4.0,6.0,55,0.00,,,0.00,650.000000,,2013-10-15 19:42:00,
2013-10-15 12:52:00,62.0,46.0,-100.00,West,276,4.0,6.0,55,0.00,,,0.00,650.000000,,2013-10-15 19:52:00,
2013-10-15 13:03:00,62.0,46.0,-100.00,West,276,4.0,6.0,55,0.00,,,0.00,650.000000,,2013-10-15 20:03:00,
2013-10-15 13:12:00,62.0,46.0,-100.00,West,276,4.0,6.0,55,0.00,,,0.00,650.000000,,2013-10-15 20:12:00,
2013-10-15 13:42:00,68.0,46.0,-100.00,North,6,3.0,6.0,45,0.00,,,0.00,700.000000,,2013-10-15 20:42:00,
2013-10-15 13:52:00,68.0,46.0,-100.00,North,6,3.0,6.0,45,0.00,,,0.00,700.000000,,2013-10-15 20:52:00,
2013-10-15 14:02:00,68.0,46.0,-100.00,North,6,3.0,6.0,45,0.00,,,0.00,700.000000,,2013-10-15 21:02:00,
2013-10-15 14:12:00,68.0,46.0,-100.00,North,6,3.0,6.0,45,0.00,,,0.00,700.000000,,2013-10-15 21:12:00,
2013-10-15 14:13:00,69.0,41.0,-100.00,NNW,348,6.0,10.0,36,0.00,,,-99.99,697.000000,,2013-10-15 21:13:00,
2013-10-15 14:44:00,69.0,41.0,-100.00,NNW,348,6.0,10.0,36,0.00,,,-99.99,697.000000,,2013-10-15 21:44:00,
2013-10-15 14:54:00,69.0,41.0,-100.00,NNW,348,6.0,10.0,36,0.00,,,-99.99,697.000000,,2013-10-15 21:54:00,
2013-10-15 15:04:00,69.0,41.0,-100.00,NNW,348,6.0,10.0,36,0.00,,,-99.99,697.000000,,2013-10-15 22:04:00,
2013-10-15 15:43:00,72.0,39.0,-100.00,North,358,4.0,12.0,30,0.00,,,0.00,623.000000,,2013-10-15 22:43:00,
2013-10-15 15:53:00,72.0,39.0,-100.00,North,358,4.0,12.0,30,0.00,,,0.00,623.000000,,2013-10-15 22:53:00,
2013-10-15 16:03:00,72.0,39.0,-100.00,North,358,4.0,12.0,30,0.00,,,0.00,623.000000,,2013-10-15 23:03:00,
2013-10-15 16:12:00,72.0,39.0,-100.00,North,358,4.0,12.0,30,0.00,,,0.00,623.000000,,2013-10-15 23:12:00,
2013-10-15 16:43:00,71.0,36.0,-100.00,North,349,5.0,10.0,28,0.00,,,0.00,495.000000,,2013-10-15 23:43:00,
2013-10-15 16:52:00,71.0,36.0,-100.00,North,349,5.0,10.0,28,0.00,,,0.00,495.000000,,2013-10-15 23:52:00,
2013-10-15 17:01:00,71.0,36.0,-100.00,North,349,5.0,10.0,28,0.00,,,0.00,495.000000,,2013-10-16 00:01:00,
2013-10-15 17:42:00,68.0,43.0,-100.00,NW,323,7.0,12.0,40,-99.99,,,0.00,322.000000,,2013-10-16 00:42:00,
2013-10-15 17:52:00,68.0,43.0,-100.00,NW,323,7.0,12.0,40,-99.99,,,0.00,322.000000,,2013-10-16 00:52:00,
2013-10-15 18:02:00,68.0,43.0,-100.00,NW,323,7.0,12.0,40,-99.99,,,0.00,322.000000,,2013-10-16 01:02:00,
2013-10-15 18:42:00,63.0,44.0,-100.00,NW,317,7.0,11.0,50,-99.99,,,0.00,118.000000,,2013-10-16 01:42:00,
2013-10-15 18:52:00,63.0,44.0,-100.00,NW,317,7.0,11.0,50,-99.99,,,0.00,118.000000,,2013-10-16 01:52:00,
2013-10-15 19:02:00,63.0,44.0,-100.00,NW,317,7.0,11.0,50,-99.99,,,0.00,118.000000,,2013-10-16 02:02:00,
2013-10-15 19:12:00,63.0,44.0,-100.00,NW,317,7.0,11.0,50,-99.99,,,0.00,118.000000,,2013-10-16 02:12:00,
2013-10-15 19:42:00,60.0,42.0,-100.00,North,3,2.0,6.0,51,0.00,,,0.00,6.000000,,2013-10-16 02:42:00,
2013-10-15 19:52:00,60.0,42.0,-100.00,North,3,2.0,6.0,51,0.00,,,0.00,6.000000,,2013-10-16 02:52:00,
2013-10-15 20:02:00,60.0,42.0,-100.00,North,3,2.0,6.0,51,0.00,,,0.00,6.000000,,2013-10-16 03:02:00,
2013-10-15 20:11:00,60.0,42.0,-100.00,North,3,2.0,6.0,51,0.00,,,0.00,6.000000,,2013-10-16 03:11:00,
2013-10-15 20:13:00,58.0,42.0,-100.00,East,85,4.0,6.0,56,0.00,,,0.00,0.000000,,2013-10-16 03:13:00,
2013-10-15 20:45:00,58.0,42.0,-100.00,East,85,4.0,6.0,56,0.00,,,0.00,0.000000,,2013-10-16 03:45:00,
2013-10-15 20:55:00,58.0,42.0,-100.00,East,85,4.0,6.0,56,0.00,,,0.00,0.000000,,2013-10-16 03:55:00,
2013-10-15 21:04:00,58.0,42.0,-100.00,East,85,4.0,6.0,56,0.00,,,0.00,0.000000,,2013-10-16 04:04:00,
2013-10-15 22:43:00,54.0,40.0,-100.00,WNW,298,5.0,8.0,60,0.00,,,0.00,0.000000,,2013-10-16 05:43:00,
2013-10-15 23:12:00,54.0,40.0,-100.00,WNW,298,5.0,8.0,60,0.00,,,0.00,0.000000,,2013-10-16 06:12:00,
2013-10-15 23:43:00,54.0,41.0,-100.00,NW,311,4.0,7.0,62,0.00,,,0.00,0.000000,,2013-10-16 06:43:00,